Location: *
(31.2983°S, 151.4094°E)
Time: 18:52:28
(UTC+00:00)

Hubble Space Telescope - Pass Details

Date: 25 August 2019
Orbit: 536 x 540 km, 28.5° (Epoch: 16 October)

Event Time Altitude Azimuth Distance (km) Brightness Sun altitude
Exits shadow 18:21:39 45° 43° (NE) 747 1.6 -25.7°
Drops below altitude 10° 18:24:50 10° 74° (ENE) 1,801 4.4 -25.0°
Sets 18:27:07 0° 78° (ENE) 2,692 5.6 -24.5°
